Time,TemperatureF,DewpointF,PressureIn,WindDirection,WindDirectionDegrees,WindSpeedMPH,WindSpeedGustMPH,Humidity,HourlyPrecipIn,Conditions,Clouds,dailyrainin,SoftwareType,DateUTC
2014-08-28 00:24:00,75.0,70.0,30.00,ENE,77,0.0,1.0,85,0.00,,,0.00,,2014-08-28 04:24:00,
2014-08-28 00:54:00,73.0,69.0,29.99,ENE,77,0.0,0.0,86,0.00,,,0.00,,2014-08-28 04:54:00,
2014-08-28 02:53:00,70.0,66.0,29.99,ENE,60,1.0,2.0,88,0.00,,,0.00,,2014-08-28 06:53:00,
2014-08-28 03:22:00,70.0,66.0,29.99,NE,49,0.0,2.0,88,0.00,,,0.00,,2014-08-28 07:22:00,
2014-08-28 03:53:00,70.0,66.0,29.99,North,1,0.0,3.0,88,0.00,,,0.00,,2014-08-28 07:53:00,
2014-08-28 04:22:00,69.0,65.0,29.99,NE,47,0.0,0.0,88,0.00,,,0.00,,2014-08-28 08:22:00,
2014-08-28 04:52:00,68.0,64.0,29.99,ENE,67,1.0,3.0,88,0.00,,,0.00,,2014-08-28 08:52:00,
2014-08-28 05:12:00,68.0,65.0,29.99,NE,48,0.0,4.0,89,0.00,,,0.00,,2014-08-28 09:12:00,
2014-08-28 05:22:00,68.0,65.0,29.99,NE,35,1.0,4.0,89,0.00,,,0.00,,2014-08-28 09:22:00,
2014-08-28 06:13:00,67.0,64.0,30.00,ENE,76,0.0,0.0,89,0.00,,,0.00,,2014-08-28 10:13:00,
2014-08-28 06:23:00,67.0,64.0,30.01,NE,47,1.0,2.0,89,0.00,,,0.00,,2014-08-28 10:23:00,
2014-08-28 06:53:00,66.0,63.0,30.02,ENE,58,0.0,2.0,89,0.00,,,0.00,,2014-08-28 10:53:00,
2014-08-28 07:23:00,65.0,62.0,30.03,NNE,33,0.0,7.0,89,0.00,,,0.00,,2014-08-28 11:23:00,
2014-08-28 07:52:00,65.0,61.0,30.03,NE,43,0.0,2.0,88,0.00,,,0.00,,2014-08-28 11:52:00,
2014-08-28 08:52:00,67.0,63.0,30.04,ENE,68,1.0,5.0,88,0.00,,,0.00,,2014-08-28 12:52:00,
2014-08-28 09:22:00,69.0,64.0,30.04,NNE,22,3.0,8.0,85,0.00,,,0.00,,2014-08-28 13:22:00,
2014-08-28 10:23:00,74.0,66.0,30.04,NNE,33,3.0,6.0,75,0.00,,,0.00,,2014-08-28 14:23:00,
2014-08-28 10:52:00,75.0,66.0,30.04,NW,321,2.0,6.0,73,0.00,,,0.00,,2014-08-28 14:52:00,
2014-08-28 12:24:00,81.0,67.0,30.04,ESE,111,1.0,5.0,62,0.00,,,0.00,,2014-08-28 16:24:00,
2014-08-28 13:24:00,82.0,68.0,30.03,NE,53,1.0,8.0,63,0.00,,,0.00,,2014-08-28 17:24:00,
2014-08-28 13:53:00,82.0,68.0,30.03,East,93,1.0,8.0,62,0.00,,,0.00,,2014-08-28 17:53:00,
2014-08-28 14:23:00,83.0,69.0,30.02,NNW,338,1.0,4.0,63,0.00,,,0.00,,2014-08-28 18:23:00,
2014-08-28 14:53:00,83.0,69.0,30.02,NE,51,0.0,5.0,62,0.00,,,0.00,,2014-08-28 18:53:00,
2014-08-28 15:22:00,84.0,69.0,30.01,NE,39,1.0,4.0,60,0.00,,,0.00,,2014-08-28 19:22:00,
2014-08-28 15:53:00,84.0,69.0,30.00,NNE,20,1.0,4.0,61,0.00,,,0.00,,2014-08-28 19:53:00,
2014-08-28 16:23:00,84.0,68.0,30.00,NE,44,1.0,5.0,59,0.00,,,0.00,,2014-08-28 20:23:00,
2014-08-28 17:22:00,83.0,69.0,29.99,NNE,27,1.0,4.0,62,0.00,,,0.00,,2014-08-28 21:22:00,
2014-08-28 17:54:00,82.0,67.0,29.98,NE,49,2.0,6.0,60,0.00,,,0.00,,2014-08-28 21:54:00,
2014-08-28 18:53:00,82.0,67.0,29.98,North,359,1.0,6.0,61,0.00,,,0.00,,2014-08-28 22:53:00,
2014-08-28 19:53:00,79.0,66.0,29.99,NNE,22,1.0,3.0,64,0.00,,,0.00,,2014-08-28 23:53:00,
2014-08-28 20:22:00,77.0,66.0,30.00,NE,41,0.0,4.0,68,0.00,,,0.00,,2014-08-29 00:22:00,
2014-08-28 20:52:00,75.0,65.0,30.00,East,87,0.0,2.0,72,0.00,,,0.00,,2014-08-29 00:52:00,